Regional Weather Roundup
Issued by NWS

Home | Current Version | Previous Version | Graphics & Text | Print | Product List | Glossary On
Versions: 1 2 3 4 5 6 7 8 9 10 11 12 13 14 15 16 17 18 19 20 21 22 23 24 25 26 27 28 29 30 31 32 33 34 35 36 37 38 39 40 41 42 43 44 45 46 47 48 49 50
000
ASUS43 KMKX 280500
RWRWI

WISCONSIN REGIONAL WEATHER ROUNDUP
NATIONAL WEATHER SERVICE MILWAUKEE/SULLIVAN WI
1200 AM CDT TUE MAR 28 2017

NOTE: "FAIR" INDICATES FEW OR NO CLOUDS BELOW 12,000 FEET WITH NO
SIGNIFICANT WEATHER AND/OR OBSTRUCTIONS TO VISIBILITY.

WIZ001-002-006>008-014>016-023>028-280600-
NORTHWEST WISCONSIN

CITY           SKY/WX    TMP DP  RH WIND       PRES   REMARKS
SUPERIOR ARPT  CLEAR     27  27  99 CALM      30.05R
ASHLAND        CLEAR     30  28  92 CALM      30.05S FOG
HAYWARD        CLEAR     29  25  85 N3        30.04R
SIREN          CLEAR     34  29  83 CALM      30.04R
CUMBERLAND     CLEAR     37  30  75 CALM      30.03R
RICE LAKE      CLEAR     34  32  95 CALM      30.04R
CHETEK         CLEAR     32  32  99 CALM      30.03S
LADYSMITH      CLEAR     37  31  77 NE5       30.04R WCI  34
EAU CLAIRE     PTCLDY    30  30 100 CALM      30.02R FOG
MENOMONIE      CLOUDY    35  34  97 CALM      30.03R
NEW RICHMOND   PTCLDY    35  35 100 CALM      30.03R
OSCEOLA        CLOUDY    33  33 100 CALM      30.05R
$$

WIZ003>005-009-010-017-018-280600-
NORTH CENTRAL WISCONSIN

CITY           SKY/WX    TMP DP  RH WIND       PRES   REMARKS
MANITOWISH WTR CLEAR     28  28 100 CALM      30.02R
ARBOR VITAE    CLEAR     32  30  93 CALM      30.00S
WOODRUFF       CLEAR     32  30  93 CALM      30.00S
RHINELANDER    CLEAR     29  27  92 CALM      30.02R
EAGLE RIVER    CLEAR     28  28 100 CALM      30.01S
LAND O LAKES   CLEAR     29  29  99 CALM      30.02S
PHILLIPS       CLEAR     28  28  99 CALM      30.01S
TOMAHAWK       CLEAR     27  26  96 CALM      30.03R
MEDFORD        FOG       30  29  99 CALM      30.01R VSB 1/2
MERRILL        FOG       28  28 100 CALM      30.02S VSB 1/4
$$

WIZ029-030-035-036-043>047-280600-
CENTRAL WISCONSIN

CITY           SKY/WX    TMP DP  RH WIND       PRES   REMARKS
WAUSAU         MOCLDY    33  32  96 N6        30.01R WCI  28
MOSINEE        CLEAR     36  36 100 N3        30.02R
MARSHFIELD     CLEAR     35  33  92 N5        30.00R WCI  31
STEVENS POINT  CLOUDY    34  34 100 CALM      30.02R
WAUPACA        CLOUDY    42  41  95 CALM      30.02R
WAUTOMA        CLOUDY    41  40  96 CALM      30.02S
WISC RAPIDS    CLOUDY    38  38 100 CALM      30.03R
CAMP DOUGLAS   NOT AVBL
$$

WIZ011>013-019>022-031-037>040-048>050-280600-
NORTHEAST WISCONSIN

CITY           SKY/WX    TMP DP  RH WIND       PRES   REMARKS
ANTIGO         FOG       29  29 100 N3        30.02R VSB 1
SHAWANO        CLOUDY    38  36  92 CALM      30.03R
OCONTO         CLOUDY    35  34  95 CALM      30.03R
STURGEON BAY   CLOUDY    36  35  96 NW5       30.04R WCI  32
GREEN BAY      CLOUDY    40  38  93 NW3       30.02R
MANITOWOC      NOT AVBL
APPLETON       CLOUDY    37  37 100 CALM      30.00R
CLINTONVILLE   CLOUDY    39  37  93 CALM      30.02S
OSHKOSH        CLOUDY    39  37  92 CALM      30.01R
$$

WIZ032>034-041-042-053>061-280600-
SOUTHWEST WISCONSIN

CITY           SKY/WX    TMP DP  RH WIND       PRES   REMARKS
LA CROSSE      CLOUDY    43  39  86 CALM      30.01S
SPARTA         CLOUDY    41  39  92 CALM      30.02S
VIROQUA        CLOUDY    42  42 100 CALM      29.99F
BOSCOBEL       CLOUDY    46  44  93 CALM      30.01R
PRAIRIE DU CHI CLOUDY    45  43  93 CALM      30.01S
PLATTEVILLE    CLOUDY    46  46 100 CALM      30.00R
$$

WIZ056-057-062-063-064-067-068-280600-
SOUTH CENTRAL WISCONSIN

CITY           SKY/WX    TMP DP  RH WIND       PRES   REMARKS
REEDSBURG      CLOUDY    43  43 100 NE3       30.00R
BARABOO/DELLS  CLOUDY    42  41  95 NE3       30.00S FOG
LONE ROCK      NOT AVBL
MINERAL POINT  CLOUDY    46  46 100 CALM      29.99R FOG
MADISON        CLOUDY    43  42  97 NE5       30.00R
MIDDLETON      CLOUDY    45  45 100 NE5       30.00S
WATERTOWN      CLOUDY    41  41 100 E3        30.00R
MONROE         CLOUDY    45  45 100 N6        29.98S FOG
JANESVILLE     CLOUDY    46  45  93 E6        29.98S FOG
$$

WIZ051-052-058>065-066-070>072-280600-
SOUTHEAST WISCONSIN

CITY           SKY/WX    TMP DP  RH WIND       PRES   REMARKS
MILWAUKEE      CLOUDY    39  36  89 N6        30.00S WCI  35
WAUKESHA       CLOUDY    36  36 100 CALM      30.00S FOG
MILWAUKEE/TIMM CLOUDY    36  34  93 NE5       30.01S FOG     WCI  32
RACINE         CLOUDY    38  35  89 N8        30.01S WCI  32
KENOSHA        CLOUDY    39  36  89 N3        30.00R
FOND DU LAC    CLOUDY    41  36  82 N5        30.01R
SHEBOYGAN      CLOUDY    37  34  89 NW3       30.01S
WEST BEND      CLOUDY    37  36  93 NE3       30.00S
JUNEAU         CLOUDY    40  39  97 NE3       30.01S FOG
$$

LSZ147-162-280600-
LAKE SUPERIOR

STATION/POSITION TIME  TEMP    WIND        PRES    WAVE
                       AIR SEA DIR/SP/G            HT/PER
                 (UTC) (F)     (DEG/KT/KT) (MB)    (FT/S)
DEVILS ISLAND    0400   37     210/  2/  2 1018.1R
PORT WING        0430   31     130/  2/  5 1017.6S
SAXON HARBOR     0430   31     190/  5/  6 1017.3S
$$

LMZ867-665-643>646-280600-
LAKE MICHIGAN

STATION/POSITION TIME  TEMP    WIND        PRES    WAVE
                       AIR SEA DIR/SP/G            HT/PER
                 (UTC) (F)     (DEG/KT/KT) (MB)    (FT/S)
CHAMBERS ISLAND  0440   33        CALM     1016.6R
NORTHPORT PIER   0440   36     310/  3/  6 1016.6S
KEWAUNEE LAKESHO 0430   37     310/  1/  3 1016.0R
SHEBOYGAN LAKESH 0400   37     340/  5/  6 1016.5R
PORT WASHINGTON  0430   39     360/  3/  5 1016.9F
MILWAUKEE LAKESH 0430   38     350/  8/  9   N/A
KENOSHA   LAKESH 0400   38      10/ 12/ 13 1015.9
$$

TC  - TEMPERATURE IN CELSIUS
VSB - VISIBILITY IN STATUTE MILES
WCI - WIND CHILL INDEX
HX  - HEAT INDEX




USA.gov is the U.S. government's official web portal to all federal, state and local government web resources and services.